DW4362 Weather Reports


time (UTC)temp
F
wind
direction
speed
knots
gust
knots
rain 1hr
in
rain 24hr
in
rain mn
in
humidity
%
barometer
mb
20260902123221 74 288 0.0 0.0 0.00 0.00 0.00 94 1017.0
20260902113220 73 278 0.0 0.0 0.00 0.00 0.00 94 1016.4
20260902103220 73 278 0.0 0.0 0.00 0.00 0.00 94 1016.0
20260902100220 73 278 0.0 0.0 0.00 0.00 0.00 95 1016.0
20260902093220 73 278 0.0 0.0 0.00 0.00 0.00 95 1015.8
20260902083220 73 278 0.0 0.0 0.00 0.00 0.00 95 1015.3
20260902080220 73 278 0.0 0.0 0.00 0.00 0.00 95 1015.3
20260902073219 73 278 0.0 0.0 0.00 0.00 0.00 95 1015.3
20260902063219 74 278 0.0 0.0 0.00 0.00 0.00 95 1015.6
20260902060219 74 278 0.0 0.0 0.00 0.00 0.00 95 1015.7
20260902050219 75 278 0.0 0.0 0.00 0.00 0.00 94 1015.7
20260902043219 75 278 0.0 0.0 0.00 0.00 0.00 94 1015.8
20260902040219 76 278 0.0 0.0 0.00 0.00 0.00 93 1016.1
20260902030219 76 278 0.0 0.0 0.00 0.00 0.00 91 1016.1
20260902023219 77 278 0.0 0.0 0.00 0.00 0.00 89 1015.8
20260902020219 78 278 0.0 0.0 0.00 0.00 0.00 87 1015.6
20260902013219 79 278 0.0 0.0 0.00 0.00 0.00 85 1015.2
20260902010219 80 266 0.0 0.0 0.00 0.00 0.00 81 1015.0
20260902003219 81 266 0.0 0.0 0.00 0.00 0.00 78 1015.0
20260902000219 82 88 0.0 0.0 0.00 0.00 0.00 84 1014.8
20260901230218 85 88 0.0 0.0 0.00 0.00 0.00 79 1014.8
20260901220218 92 233 0.0 0.0 0.00 0.00 0.00 66 1014.5
20260901213218 94 212 1.7 1.7 0.00 0.00 0.00 62 1014.5
20260901210218 94 65 0.0 0.0 0.00 0.00 0.00 61 1014.6
20260901200217 94 217 0.0 0.0 0.00 0.00 0.00 62 1014.8
20260901193218 93 259 0.0 1.7 0.00 0.00 0.00 64 1015.0
20260901190218 90 208 0.0 0.0 0.00 0.00 0.00 72 1015.4
20260901183217 91 290 0.0 1.7 0.00 0.00 0.00 66 1015.9
20260901180217 92 261 1.7 1.7 0.00 0.00 0.00 65 1016.2
20260901170217 92 80 0.0 1.7 0.00 0.00 0.00 64 1017.1
20260901163216 91 358 0.0 0.0 0.00 0.00 0.00 66 1017.2
20260901160217 92 283 0.0 0.0 0.00 0.00 0.00 65 1017.2
20260901153216 91 356 0.0 0.0 0.00 0.00 0.00 73 1017.4
20260901150216 88 359 0.0 1.7 0.00 0.00 0.00 77 1017.3
20260901143216 86 15 0.0 0.0 0.00 0.00 0.00 81 1017.3
20260901133216 80 6 0.0 1.7 0.00 0.00 0.00 95 1017.3
20260901130216 77 8 0.0 0.0 0.00 0.00 0.00 95 1017.3